Weather History for KP58 - June, 2013

Change the Weather History Date:

Sunday, June 9, 2013

  Actual Average Record
Temperature  
Mean Temperature 58 °F -  
Max Temperature 64 °F 64 °F 87 °F (2005)
Min Temperature 52 °F 50 °F 48 °F (2001)
Degree Days  
Heating Degree Days 7    
Growing Degree Days 8 (Base 50)    
Moisture  
Dew Point 53 °F    
Average Humidity 80    
Maximum Humidity 93    
Minimum Humidity 70    
Precipitation  
Precipitation 0.00 in - - ()
Sea Level Pressure  
Sea Level Pressure 30.10 in    
Wind  
Wind Speed 4 mph (ESE)    
Max Wind Speed 14 mph    
Max Gust Speed -    
Averages and records for this station are not official NWS values.
T = Trace of Precipitation, MM = Missing Value Source: NWS Daily Summary

Daily Weather History Graph

Daily Weather History Graph

Search for Another Location

Airport or City:

Trip Planner

Search our weather history database for the weather conditions in past years. The results will help you decide how hot, cold, wet, or windy it might be!

Date:

Astronomy

Jun. 09, 2013 Rise Set
Actual Time 5:48 AM EDT 9:13 PM EDT
Civil Twilight 5:12 AM EDT 9:49 PM EDT
Nautical Twilight 4:25 AM EDT 10:36 PM EDT
Astronomical Twilight 3:25 AM EDT 11:35 PM EDT
Moon 6:46 AM EDT (6/9) 9:56 PM EDT (6/9)
Length of Visible Light 16h 36m
Length of Day
15h 24m
New Moon, 1% of the Moon is Illuminated
Jun 9
New Moon
Jun 16
First Quarter
Jun 23
Full
Jun 30
Last Quarter
Jul 8
New

Hourly Weather History & Observations

Time (EDT) Temp. Dew Point Humidity Pressure Visibility Wind Dir Wind Speed Gust Speed Precip Events Conditions
12:51 AM 54.0 °F 50.0 °F 86% 30.08 in - Calm Calm - N/A   Unknown
1:51 AM 54.0 °F 50.0 °F 86% 30.10 in - Calm Calm - N/A   Unknown
2:51 AM 53.1 °F 50.0 °F 89% 30.10 in - Calm Calm - N/A   Unknown
3:51 AM 53.1 °F 50.0 °F 89% 30.11 in - Calm Calm - N/A   Unknown
4:51 AM 53.1 °F 50.0 °F 89% 30.12 in - Calm Calm - N/A   Unknown
5:51 AM 52.0 °F 50.0 °F 93% 30.12 in - Calm Calm - N/A   Unknown
6:51 AM 55.9 °F 51.1 °F 84% 30.14 in - Calm Calm - N/A   Unknown
7:51 AM 60.1 °F 53.1 °F 78% 30.14 in - SE 3.5 mph - N/A   Unknown
8:51 AM 64.0 °F 55.0 °F 73% 30.14 in - East 4.6 mph - N/A   Unknown
9:51 AM 64.0 °F 57.0 °F 78% 30.14 in - ESE 6.9 mph - N/A   Unknown
10:51 AM 61.0 °F 55.0 °F 81% 30.14 in - ESE 12.7 mph - N/A   Unknown
11:51 AM 60.1 °F 55.0 °F 83% 30.14 in - ESE 13.8 mph - N/A   Unknown
12:51 PM 62.1 °F 55.0 °F 78% 30.14 in - East 13.8 mph - N/A   Unknown
1:51 PM 63.0 °F 55.9 °F 78% 30.12 in - East 13.8 mph - N/A   Unknown
2:51 PM 62.1 °F 55.9 °F 80% 30.11 in - East 11.5 mph - N/A   Unknown
3:51 PM 64.0 °F 55.9 °F 75% 30.09 in - East 10.4 mph - N/A   Unknown
4:51 PM 62.1 °F 55.9 °F 80% 30.09 in - East 6.9 mph - N/A   Unknown
5:51 PM 62.1 °F 54.0 °F 75% 30.08 in - ESE 6.9 mph - N/A   Unknown
6:51 PM 61.0 °F 53.1 °F 75% 30.05 in - East 10.4 mph - N/A   Unknown
7:51 PM 60.1 °F 51.1 °F 72% 30.05 in - SE 4.6 mph - N/A   Unknown
8:51 PM 61.0 °F 52.0 °F 72% 30.03 in - East 12.7 mph - N/A   Unknown
9:51 PM 61.0 °F 53.1 °F 75% 30.02 in - East 12.7 mph - N/A   Unknown
10:51 PM 61.0 °F 51.1 °F 70% 30.03 in - ESE 10.4 mph - N/A   Unknown
11:51 PM 62.1 °F 53.1 °F 72% 30.02 in - ESE 10.4 mph - N/A   Unknown